�N����,����,�~����,�C��,���x,�C��,����,���ϕ���,�ő�u�ԕ���,�ő厞����,���˗�,�I�_���x,�n�����x,�ő啗���N��,DTYPE
"19/05/07","00:10",0.0,11.8,84.1,1008.1,323.8,2.6,3.7,316.9,0.00,9.2,16.5,"00:02:40",1
"19/05/07","00:20",0.0,11.6,83.1,1007.6,330.6,2.3,4.0,324.5,0.00,8.9,16.5,"00:11:20",1
"19/05/07","00:30",0.0,11.5,82.4,1008.1,313.2,1.8,3.1,329.2,0.00,8.6,16.3,"00:21:36",1
"19/05/07","00:40",0.0,11.3,83.0,1008.1,332.0,1.3,2.7,319.3,0.00,8.6,16.3,"00:31:12",1
"19/05/07","00:50",0.0,10.9,84.0,1008.3,354.7,1.2,4.1,335.6,0.00,8.3,16.3,"00:49:52",1
"19/05/07","01:00",0.0,10.8,84.3,1007.6,336.9,1.7,3.3,325.3,0.00,8.3,16.2,"00:50:16",1
"19/05/07","01:10",0.0,10.5,85.4,1007.8,322.9,2.6,5.1,308.0,0.00,8.2,16.2,"01:04:56",1
"19/05/07","01:20",0.0,10.3,84.9,1007.8,309.7,2.2,4.1,262.7,0.00,7.9,16.2,"01:18:16",1
"19/05/07","01:30",0.0,10.3,83.8,1008.1,302.4,2.5,4.5,326.2,0.00,7.7,16.1,"01:22:32",1
"19/05/07","01:40",0.0,10.4,83.3,1007.8,315.7,2.6,4.2,327.0,0.00,7.7,16.0,"01:37:36",1
"19/05/07","01:50",0.0,10.3,82.4,1007.8,336.2,2.2,4.3,338.1,0.00,7.5,15.9,"01:45:04",1
"19/05/07","02:00",0.0,10.0,82.4,1007.6,316.9,2.0,3.7,325.7,0.00,7.2,15.8,"01:56:32",1
"19/05/07","02:10",0.0,9.6,84.7,1007.4,310.8,2.2,5.0,333.0,0.00,7.2,15.9,"02:08:56",1
"19/05/07","02:20",0.0,9.4,85.0,1006.9,306.2,2.0,3.7,324.4,0.00,7.0,15.8,"02:18:40",1
"19/05/07","02:30",0.0,9.4,85.3,1007.1,317.8,2.5,3.5,326.6,0.00,7.1,15.7,"02:28:00",1
"19/05/07","02:40",0.0,9.1,86.7,1007.1,323.8,2.2,3.1,335.7,0.00,7.0,15.6,"02:37:36",1
"19/05/07","02:50",0.0,8.9,87.7,1007.1,324.0,2.5,4.2,312.9,0.00,7.0,15.5,"02:44:40",1
"19/05/07","03:00",0.0,8.8,88.5,1006.7,314.0,2.3,3.7,335.2,0.00,7.0,15.4,"02:53:36",1
"19/05/07","03:10",0.0,8.9,88.3,1006.9,323.5,2.5,3.9,344.9,0.00,7.1,15.3,"03:08:48",1
"19/05/07","03:20",0.0,8.9,89.1,1007.1,314.8,2.1,2.9,316.2,0.00,7.2,15.3,"03:18:40",1
"19/05/07","03:30",0.0,9.0,89.1,1007.1,320.5,2.3,3.6,328.8,0.00,7.3,15.2,"03:20:24",1
"19/05/07","03:40",0.0,9.1,89.1,1007.1,325.5,3.2,4.9,322.4,0.00,7.4,15.1,"03:35:28",1
"19/05/07","03:50",0.0,9.2,88.8,1007.1,315.1,3.0,6.5,333.1,0.00,7.5,15.0,"03:43:44",1
"19/05/07","04:00",0.0,9.3,88.0,1007.1,323.1,3.0,5.6,334.6,0.00,7.5,15.2,"03:51:36",1
"19/05/07","04:10",0.0,9.2,87.9,1007.4,331.4,3.4,5.1,335.0,0.00,7.3,14.9,"04:09:56",1
"19/05/07","04:20",0.0,9.2,88.2,1007.4,329.1,3.2,4.4,316.1,0.00,7.4,15.0,"04:19:36",1
"19/05/07","04:30",0.0,9.2,88.0,1007.4,326.7,3.7,6.2,334.4,0.00,7.4,14.9,"04:25:20",1
"19/05/07","04:40",0.0,9.3,87.6,1007.6,329.2,3.7,6.4,337.6,0.00,7.4,14.9,"04:34:08",1
"19/05/07","04:50",0.0,9.2,87.3,1007.6,324.5,3.6,5.6,321.6,0.00,7.2,14.6,"04:40:48",1
"19/05/07","05:00",0.0,9.1,86.7,1007.6,329.8,3.0,4.4,348.6,0.00,7.0,14.7,"04:51:12",1
"19/05/07","05:10",0.0,9.1,86.9,1007.6,319.3,3.1,5.2,316.2,0.00,7.1,14.7,"05:08:32",1
"19/05/07","05:20",0.0,9.1,85.8,1008.1,328.2,3.6,5.1,330.9,0.00,6.9,14.7,"05:17:52",1
"19/05/07","05:30",0.0,8.9,85.5,1007.6,320.4,3.0,5.2,319.5,0.00,6.6,14.7,"05:25:12",1
"19/05/07","05:40",0.0,8.9,85.8,1007.8,329.2,3.1,4.1,312.3,0.00,6.7,14.6,"05:34:32",1
"19/05/07","05:50",0.0,8.8,85.8,1007.8,329.7,2.6,4.1,326.0,0.00,6.6,14.5,"05:46:24",1
"19/05/07","06:00",0.0,8.8,86.5,1008.1,326.7,3.1,4.5,330.6,0.00,6.7,14.6,"05:55:20",1
"19/05/07","06:10",0.0,8.9,86.6,1008.3,332.6,3.1,4.8,336.3,0.00,6.8,14.4,"06:07:04",1
"19/05/07","06:20",0.0,9.0,86.8,1008.3,325.8,2.8,4.7,332.2,0.00,7.0,14.5,"06:14:16",1
"19/05/07","06:30",0.0,9.4,86.4,1008.3,327.4,2.8,5.4,342.0,0.02,7.3,14.5,"06:22:56",1
"19/05/07","06:40",0.0,9.8,85.5,1008.3,321.1,3.4,5.1,338.7,0.03,7.5,14.4,"06:32:24",1
"19/05/07","06:50",0.0,10.2,84.0,1008.8,332.8,2.7,4.1,344.9,0.05,7.7,14.5,"06:41:20",1
"19/05/07","07:00",0.0,10.5,81.6,1009.0,323.6,2.5,4.3,340.7,0.07,7.5,14.3,"06:54:08",1
"19/05/07","07:10",0.0,11.2,78.1,1009.3,310.0,1.3,2.5,323.0,0.09,7.6,14.5,"07:00:16",1
"19/05/07","07:20",0.0,11.7,71.7,1009.5,327.0,1.5,3.1,338.1,0.11,6.8,14.7,"07:15:44",1
"19/05/07","07:30",0.0,11.7,71.6,1009.7,312.3,1.8,3.1,344.9,0.14,6.8,14.5,"07:26:40",1
"19/05/07","07:40",0.0,12.1,68.8,1009.5,320.5,1.5,2.6,341.9,0.16,6.6,14.8,"07:34:32",1
"19/05/07","07:50",0.0,12.5,67.5,1009.7,317.6,1.6,4.7,334.5,0.19,6.7,14.8,"07:46:40",1
"19/05/07","08:00",0.0,12.8,64.5,1009.5,333.8,1.7,4.7,4.6,0.22,6.3,14.7,"07:55:20",1
"19/05/07","08:10",0.0,12.6,63.8,1010.0,341.8,2.7,6.2,327.7,0.27,6.0,14.7,"08:07:20",1
"19/05/07","08:20",0.0,12.6,63.9,1009.7,329.7,2.8,5.9,321.9,0.23,6.0,14.8,"08:16:40",1
"19/05/07","08:30",0.0,12.3,65.7,1009.7,332.0,3.1,5.7,350.4,0.22,6.1,14.9,"08:26:32",1
"19/05/07","08:40",0.0,13.0,63.1,1009.7,332.2,3.4,5.5,329.0,0.36,6.2,15.0,"08:34:40",1
"19/05/07","08:50",0.0,13.1,61.2,1009.7,323.6,2.6,6.0,326.5,0.36,5.8,15.2,"08:47:04",1
"19/05/07","09:00",0.0,13.6,59.4,1009.5,337.3,2.3,4.3,337.2,0.39,5.9,15.4,"08:57:28",1
"19/05/07","09:10",0.0,13.7,58.4,1009.7,315.6,2.6,5.0,337.7,0.41,5.7,15.5,"09:06:08",1
"19/05/07","09:20",0.0,14.3,56.5,1009.7,325.7,3.0,5.4,342.8,0.43,5.8,15.5,"09:10:32",1
"19/05/07","09:30",0.0,14.4,55.5,1009.5,347.5,2.8,6.4,339.3,0.45,5.7,15.8,"09:28:56",1
"19/05/07","09:40",0.0,14.6,54.1,1009.7,344.4,3.0,5.8,320.0,0.46,5.5,15.8,"09:32:56",1
"19/05/07","09:50",0.0,14.1,52.7,1009.7,340.5,3.2,6.0,343.4,0.41,4.6,15.9,"09:43:44",1
"19/05/07","10:00",0.0,14.6,50.9,1009.7,326.8,2.7,7.4,333.8,0.42,4.6,16.1,"09:58:48",1
"19/05/07","10:10",0.0,15.0,51.2,1009.5,333.0,3.6,6.6,328.6,0.52,5.1,16.3,"10:06:56",1
"19/05/07","10:20",0.0,15.0,50.3,1009.5,339.1,3.9,7.0,335.9,0.53,4.8,16.4,"10:10:48",1
"19/05/07","10:30",0.0,15.6,50.2,1009.7,343.0,3.5,7.0,344.5,0.54,5.3,16.6,"10:26:56",1
"19/05/07","10:40",0.0,15.2,46.6,1009.5,339.9,3.6,9.0,338.8,0.56,3.9,16.8,"10:35:36",1
"19/05/07","10:50",0.0,15.7,44.1,1009.7,348.4,3.0,6.7,349.0,0.57,3.6,16.9,"10:40:48",1
"19/05/07","11:00",0.0,15.7,42.6,1009.7,344.7,2.8,8.3,345.0,0.59,3.1,17.2,"10:55:20",1
"19/05/07","11:10",0.0,15.9,44.2,1009.5,333.8,2.7,6.0,350.9,0.60,3.8,17.4,"11:00:02",1
"19/05/07","11:20",0.0,15.8,41.0,1009.5,336.7,4.4,9.6,328.2,0.60,2.6,17.4,"11:15:52",1
"19/05/07","11:30",0.0,16.3,40.2,1009.3,343.3,3.1,5.9,68.3,0.61,2.8,17.7,"11:28:16",1
"19/05/07","11:40",0.0,16.5,42.1,1008.8,345.9,3.5,8.3,339.0,0.62,3.6,17.9,"11:35:20",1
"19/05/07","11:50",0.0,16.9,42.1,1008.6,4.3,2.5,4.9,319.3,0.63,4.0,18.2,"11:46:56",1
"19/05/07","12:00",0.0,16.6,41.0,1008.6,332.8,3.1,7.9,340.4,0.63,3.3,18.3,"11:57:44",1
"19/05/07","12:10",0.0,16.0,36.6,1008.6,334.6,3.0,5.9,338.2,0.60,1.2,18.5,"12:08:00",1
"19/05/07","12:20",0.0,16.7,35.4,1008.6,338.3,3.2,6.8,347.0,0.63,1.4,18.7,"12:16:40",1
"19/05/07","12:30",0.0,16.6,31.2,1008.8,18.4,2.8,6.7,64.6,0.63,-0.5,19.0,"12:21:44",1
"19/05/07","12:40",0.0,17.0,35.1,1008.6,359.3,3.6,7.2,323.8,0.63,1.5,19.0,"12:30:02",1
"19/05/07","12:50",0.0,17.3,35.8,1008.3,326.3,2.8,6.3,304.9,0.63,2.1,19.2,"12:46:08",1
"19/05/07","13:00",0.0,17.0,32.1,1008.3,343.6,3.2,6.4,337.9,0.63,0.3,19.3,"12:50:16",1
"19/05/07","13:10",0.0,17.2,34.2,1008.3,329.2,3.9,8.0,325.2,0.63,1.3,19.7,"13:03:52",1
"19/05/07","13:20",0.0,17.0,30.7,1008.1,322.6,4.1,8.0,327.9,0.62,-0.3,19.6,"13:17:12",1
"19/05/07","13:30",0.0,18.0,36.6,1007.8,321.1,3.7,8.5,334.7,0.62,3.0,19.7,"13:23:28",1
"19/05/07","13:40",0.0,17.8,34.4,1008.1,346.3,3.2,6.6,350.9,0.61,1.9,19.7,"13:39:36",1
"19/05/07","13:50",0.0,17.4,32.0,1007.8,340.6,3.1,6.5,336.6,0.60,0.6,20.0,"13:41:12",1
"19/05/07","14:00",0.0,17.3,29.9,1008.1,12.4,3.0,11.3,340.4,0.59,-0.4,19.8,"13:59:12",1
"19/05/07","14:10",0.0,17.4,32.6,1008.3,345.1,3.5,8.0,353.3,0.58,0.8,19.9,"14:02:32",1
"19/05/07","14:20",0.0,17.7,31.2,1007.6,344.7,2.8,6.2,335.8,0.57,0.5,19.7,"14:12:08",1
"19/05/07","14:30",0.0,17.6,31.2,1007.6,344.9,2.6,5.8,345.7,0.55,0.4,19.7,"14:20:08",1
"19/05/07","14:40",0.0,17.5,27.8,1007.6,333.0,3.5,7.7,325.2,0.54,-1.3,19.7,"14:32:56",1
"19/05/07","14:50",0.0,17.6,30.9,1007.6,324.5,4.0,8.3,331.5,0.52,0.3,19.9,"14:45:20",1
"19/05/07","15:00",0.0,17.1,30.0,1007.6,342.8,3.6,7.1,0.7,0.50,-0.6,19.9,"14:56:48",1
"19/05/07","15:10",0.0,17.6,30.3,1007.4,353.7,2.6,6.3,347.0,0.48,0.0,19.7,"15:07:12",1
"19/05/07","15:20",0.0,17.7,29.3,1007.1,346.5,2.5,5.0,334.4,0.46,-0.4,20.0,"15:13:20",1
"19/05/07","15:30",0.0,17.3,29.5,1007.1,355.8,2.8,6.4,349.7,0.44,-0.6,20.0,"15:26:24",1
"19/05/07","15:40",0.0,17.5,29.6,1006.9,336.7,3.2,5.6,318.9,0.42,-0.4,19.9,"15:32:24",1
"19/05/07","15:50",0.0,17.7,28.6,1007.1,342.3,3.0,6.4,339.8,0.40,-0.7,20.2,"15:48:00",1
"19/05/07","16:00",0.0,17.2,27.4,1006.9,8.8,2.8,5.6,11.0,0.37,-1.7,20.1,"15:53:44",1
"19/05/07","16:10",0.0,18.0,28.3,1007.1,357.2,2.1,4.9,344.1,0.35,-0.6,20.0,"16:04:48",1
"19/05/07","16:20",0.0,17.3,27.3,1007.1,5.3,3.0,5.6,348.4,0.33,-1.7,19.8,"16:18:08",1
"19/05/07","16:30",0.0,17.0,27.4,1007.1,4.3,3.1,7.1,341.1,0.30,-1.9,20.1,"16:22:00",1
"19/05/07","16:40",0.0,17.1,29.3,1007.4,357.1,2.3,4.3,334.7,0.27,-0.9,19.7,"16:33:12",1
"19/05/07","16:50",0.0,17.0,29.8,1007.6,347.5,3.4,6.0,343.2,0.25,-0.7,19.7,"16:42:32",1
"19/05/07","17:00",0.0,17.0,29.0,1007.4,341.3,2.5,5.8,342.1,0.22,-1.1,19.6,"16:53:52",1
"19/05/07","17:10",0.0,16.7,28.1,1007.6,331.9,3.2,7.5,334.8,0.20,-1.8,19.5,"17:05:28",1
"19/05/07","17:20",0.0,16.2,26.5,1007.4,328.7,3.7,9.3,337.4,0.17,-3.0,19.5,"17:18:08",1
"19/05/07","17:30",0.0,16.0,26.9,1007.6,328.5,4.4,9.8,338.8,0.14,-3.0,19.4,"17:23:12",1
"19/05/07","17:40",0.0,16.2,28.3,1007.8,331.1,3.2,6.3,340.0,0.12,-2.1,19.1,"17:32:24",1
"19/05/07","17:50",0.0,15.7,28.5,1007.8,332.7,3.7,8.2,332.7,0.08,-2.5,19.2,"17:40:02",1
"19/05/07","18:00",0.0,15.4,28.3,1008.3,326.0,3.7,5.7,336.7,0.01,-2.8,19.2,"17:50:02",1
"19/05/07","18:10",0.0,15.2,30.0,1008.1,325.0,3.2,5.8,328.0,0.00,-2.2,18.9,"18:05:12",1
"19/05/07","18:20",0.0,14.9,31.9,1008.6,337.8,3.1,6.4,346.6,0.00,-1.6,18.9,"18:13:38",1
"19/05/07","18:30",0.0,14.5,31.8,1008.3,314.7,2.1,4.7,338.8,0.00,-2.0,18.6,"18:24:24",1
"19/05/07","18:40",0.0,14.2,32.4,1008.3,327.0,2.5,4.9,328.9,0.00,-2.0,18.5,"18:38:56",1
"19/05/07","18:50",0.0,13.8,35.2,1008.6,321.1,3.1,6.3,324.9,0.00,-1.3,18.2,"18:45:28",1
"19/05/07","19:00",0.0,13.3,37.0,1008.6,320.8,2.2,3.9,340.3,0.00,-1.0,18.2,"18:50:24",1
"19/05/07","19:10",0.0,12.9,40.9,1008.6,320.6,2.2,3.3,318.4,0.00,0.0,18.1,"19:03:24",1
"19/05/07","19:20",0.0,11.8,47.3,1008.6,330.5,2.1,2.8,342.0,0.00,1.0,18.0,"19:12:12",1
"19/05/07","19:30",0.0,11.3,49.0,1008.6,329.0,2.0,3.2,333.5,0.00,1.0,17.8,"19:24:12",1
"19/05/07","19:40",0.0,11.0,53.6,1008.3,335.6,1.5,2.9,339.5,0.00,2.0,17.6,"19:31:44",1
"19/05/07","19:50",0.0,10.3,56.1,1008.3,336.5,1.3,2.2,325.0,0.00,2.0,17.4,"19:47:44",1
"19/05/07","20:00",0.0,9.9,58.9,1008.6,336.9,1.7,2.2,331.1,0.00,2.3,17.3,"19:54:08",1
"19/05/07","20:10",0.0,9.4,60.3,1008.8,322.1,1.6,2.4,315.5,0.00,2.1,16.9,"20:08:32",1
"19/05/07","20:20",0.0,8.9,62.9,1008.6,302.2,1.8,2.2,310.0,0.00,2.3,16.8,"20:10:48",1
"19/05/07","20:30",0.0,8.7,63.7,1009.0,304.7,2.1,3.3,328.9,0.00,2.3,17.0,"20:26:40",1
"19/05/07","20:40",0.0,8.6,63.6,1009.0,290.4,1.8,2.8,312.1,0.00,2.1,16.7,"20:33:04",1
"19/05/07","20:50",0.0,8.2,65.0,1009.0,291.3,1.7,2.4,312.5,0.00,2.1,16.6,"20:47:04",1
"19/05/07","21:00",0.0,8.1,66.8,1009.3,302.2,2.2,4.2,329.4,0.00,2.3,16.4,"20:59:04",1
"19/05/07","21:10",0.0,8.1,67.0,1009.3,313.2,2.6,3.7,331.9,0.00,2.4,16.5,"21:06:52",1
"19/05/07","21:20",0.0,8.3,67.2,1009.5,319.4,3.4,6.4,318.4,0.00,2.6,16.2,"21:16:20",1
"19/05/07","21:30",0.0,8.3,67.0,1010.0,298.9,2.8,4.8,323.9,0.00,2.6,16.0,"21:23:34",1
"19/05/07","21:40",0.0,8.1,68.4,1009.5,293.2,2.1,4.3,310.2,0.00,2.7,15.9,"21:39:24",1
"19/05/07","21:50",0.0,8.3,68.9,1009.5,304.1,3.1,6.0,329.0,0.00,3.0,15.9,"21:46:16",1
"19/05/07","22:00",0.0,8.3,69.1,1009.7,299.3,2.6,5.8,333.9,0.00,3.0,15.6,"21:59:20",1
"19/05/07","22:10",0.0,8.2,68.9,1009.7,287.3,2.1,3.6,319.9,0.00,2.9,15.7,"22:08:14",1
"19/05/07","22:20",0.0,8.0,68.8,1009.7,288.2,1.7,2.5,293.2,0.00,2.7,15.5,"22:13:04",1
"19/05/07","22:30",0.0,8.1,69.0,1009.7,299.0,2.6,4.7,311.5,0.00,2.8,15.6,"22:26:48",1
"19/05/07","22:40",0.0,8.1,69.0,1010.0,302.9,3.1,5.6,337.6,0.00,2.8,15.4,"22:33:28",1
"19/05/07","22:50",0.0,8.1,68.4,1010.0,299.6,3.0,5.5,315.4,0.00,2.7,15.3,"22:41:54",1
"19/05/07","23:00",0.0,7.8,68.7,1009.7,303.7,2.6,3.7,314.4,0.00,2.5,15.4,"22:53:04",1
"19/05/07","23:10",0.0,7.9,69.5,1009.7,309.3,2.5,4.4,331.3,0.00,2.7,15.2,"23:07:06",1
"19/05/07","23:20",0.0,7.9,69.6,1010.2,323.8,2.0,3.7,331.7,0.00,2.7,15.1,"23:16:40",1
"19/05/07","23:30",0.0,7.9,69.7,1010.0,327.9,3.2,5.1,329.8,0.00,2.8,15.0,"23:24:16",1
"19/05/07","23:40",0.0,7.9,69.6,1009.5,318.4,3.6,6.0,315.3,0.00,2.7,15.0,"23:34:08",1
"19/05/07","23:50",0.0,8.0,69.0,1010.0,314.8,4.0,5.6,319.8,0.00,2.7,14.9,"23:47:44",1
"19/05/07","24:00",0.0,7.7,69.9,1009.7,324.3,3.7,4.8,334.0,0.00,2.6,14.8,"23:53:28",1
